FW6971 Weather Reports


Display with metric or nautical units.
time (UTC)temp
F
wind
direction
speed
MPH
gust
MPH
rain 1hr
in
rain 24hr
in
rain mn
in
humidity
%
barometer
mb
20260505080030 41 229 8.0 14.0 0.00 0.02 0.00 92 1009.8
20260505074526 41 218 9.0 14.0 0.00 0.03 0.00 92 1009.5
20260505073030 41 235 8.0 12.0 0.00 0.03 0.00 92 1009.5
20260505071529 40 242 6.0 9.0 0.00 0.03 0.00 91 1009.4
20260505070027 41 227 4.0 11.0 0.00 0.03 0.00 91 1009.1
20260505064527 41 248 6.0 11.0 0.00 0.04 0.00 90 1008.8
20260505063025 42 269 8.0 15.0 0.00 0.04 0.00 90 1008.5
20260505061529 41 241 10.0 18.0 0.00 0.04 0.00 90 1008.1
20260505060026 41 196 12.0 20.0 0.00 0.04 0.00 90 1007.7
20260505054541 41 236 11.0 18.0 0.00 0.05 0.00 91 1007.6
20260505053027 41 239 10.0 16.0 0.00 0.05 0.00 91 1007.4
20260505051528 40 225 9.0 15.0 0.00 0.05 0.00 92 1007.3
20260505041531 40 222 9.0 19.0 0.00 0.05 0.00 91 1006.4
20260505040040 40 246 13.0 18.0 0.00 0.05 0.00 91 1006.2
20260505034536 41 207 11.0 18.0 0.00 0.05 0.00 90 1006.2
20260505033026 41 229 12.0 18.0 0.00 0.05 0.00 89 1006.1
20260505031527 41 231 10.0 17.0 0.00 0.05 0.00 89 1005.9
20260505030028 42 238 10.0 18.0 0.00 0.05 0.00 88 1005.6
20260505024528 42 243 10.0 19.0 0.00 0.05 0.05 87 1005.4
20260505023028 43 217 11.0 21.0 0.00 0.05 0.05 86 1005.4
20260505021529 43 253 10.0 18.0 0.00 0.05 0.05 85 1005.0
20260505020037 43 208 9.0 17.0 0.00 0.05 0.05 85 1005.0
20260505014530 44 201 8.0 15.0 0.00 0.05 0.05 84 1005.0
20260505013030 43 225 8.0 14.0 0.00 0.05 0.05 84 1005.0
20260505011530 43 218 6.0 14.0 0.00 0.05 0.05 83 1004.8
20260505010027 44 216 8.0 16.0 0.00 0.05 0.05 82 1004.6
20260505004528 44 201 10.0 15.0 0.00 0.07 0.05 81 1004.9
20260505003027 45 242 10.0 16.0 0.00 0.07 0.05 80 1004.7
20260505001528 45 206 10.0 15.0 0.00 0.07 0.05 80 1004.5
20260505000042 44 235 10.0 18.0 0.00 0.07 0.05 80 1004.2
20260504234528 45 236 9.0 16.0 0.00 0.15 0.05 78 1003.7
20260504233026 45 213 9.0 21.0 0.00 0.15 0.05 76 1003.5
20260504231530 45 239 13.0 18.0 0.00 0.15 0.05 76 1003.4
20260504230058 46 222 12.0 18.0 0.00 0.15 0.05 75 1003.1
20260504224528 47 219 10.0 17.0 0.00 0.40 0.05 73 1002.8
20260504223028 48 209 8.0 18.0 0.00 0.40 0.05 71 1002.8
20260504221528 48 210 10.0 17.0 0.00 0.40 0.05 70 1002.7
20260504220042 48 220 10.0 17.0 0.00 0.40 0.05 71 1002.4
20260504214534 50 194 11.0 23.0 0.00 0.54 0.05 65 1002.3
20260504213031 55 275 12.0 29.0 0.00 0.54 0.05 54 1002.0
20260504211536 55 236 13.0 31.0 0.00 0.54 0.05 56 1001.9
20260504210026 56 254 17.0 28.0 0.00 0.54 0.05 54 1001.7
20260504204536 55 272 15.0 30.0 0.00 0.66 0.05 59 1001.4
20260504203028 54 260 14.0 29.0 0.00 0.66 0.05 59 1001.2
20260504201528 54 244 19.0 33.0 0.00 0.66 0.05 57 1001.0
20260504200030 54 267 19.0 34.0 0.00 0.66 0.05 60 1000.7
20260504194528 54 271 22.0 32.0 0.00 0.67 0.05 59 1000.5
20260504193030 53 273 18.0 33.0 0.00 0.67 0.05 61 1000.3
20260504191529 54 241 24.0 40.0 0.00 0.67 0.05 61 999.9
20260504190030 53 251 23.0 40.0 0.00 0.67 0.05 65 999.8
20260504184527 52 288 21.0 34.0 0.00 0.68 0.05 69 999.5
20260504183030 52 254 21.0 39.0 0.00 0.68 0.05 72 999.4
20260504181531 51 228 21.0 39.0 0.00 0.68 0.05 73 999.3
20260504180028 51 254 19.0 36.0 0.00 0.68 0.05 74 999.0
20260504174530 50 263 20.0 35.0 0.00 0.68 0.05 76 998.8
20260504173030 49 237 24.0 45.0 0.00 0.68 0.05 77 998.6
20260504171528 49 252 22.0 37.0 0.00 0.68 0.05 79 998.4
20260504081530 37 236 14.0 31.0 0.00 0.67 0.03 97 979.7